Regional Weather Roundup
Issued by NWS Upton, NY

Current Version | Previous Version | Graphics & Text | Print | Product List | Glossary Off
Versions: 1 2 3 4 5 6 7 8 9 10 11 12 13 14 15 16 17 18 19 20 21 22 23 24 25 26 27 28

000
ASUS41 KOKX 232109
RWROKX

REGIONAL WEATHER ROUNDUP
NATIONAL WEATHER SERVICE NEW YORK NY
500 PM EDT TUE MAY 23 2017

NOTE: "FAIR" INDICATES FEW OR NO CLOUDS BELOW 12,000 FEET WITH NO
SIGNIFICANT WEATHER AND/OR OBSTRUCTIONS TO VISIBILITY.

NYZ071-072-176-178-NJZ106-104-232200-
NEW YORK CITY METRO AREA

CITY           SKY/WX    TMP DP  RH WIND       PRES   REMARKS
Central Park   CLOUDY    68  46  45 CALM      29.88F
Wall St Helipt CLOUDY    66  51  58 VRB3      29.86F
Bronx Bot Gard   N/A     68  45  42 CALM      29.86S
LaGuardia APRT CLOUDY    69  46  43 NE5       29.85F
Kennedy INTL   CLOUDY    64  52  64 S8        29.87F
Breezy Point     N/A     61 N/A N/A S3          N/A
Newark/Liberty CLOUDY    69  48  47 VRB5      29.85F
Teterboro      CLOUDY    70  46  42 CALM      29.84F
$$

NYZ177-179-078>081-232200-
LONG ISLAND NEW YORK

CITY           SKY/WX    TMP DP  RH WIND       PRES   REMARKS
Jones Beach      N/A     61 N/A N/A W5          N/A
Matinecock PT  NOT AVBL
Farmingdale    CLOUDY    65  50  58 S8        29.85F
MacArthur/ISP  CLOUDY    68  50  52 S7        29.84F
Shirley        CLOUDY    66  51  58 S7        29.86F
Mt Sinai Harb    N/A     64 N/A N/A CALM        N/A
Westhampton    CLOUDY    66  48  52 S7        29.87F
East Hampton     N/A     65  51  58 S7        29.85S
Montauk          N/A     64  56  75 VRB5      29.86F
$$

NYZ052-065-067-232200-
HUDSON VALLEY

CITY           SKY/WX    TMP DP  RH WIND       PRES   REMARKS
White Plains   CLOUDY    67  50  54 NW8       29.86S
Larchmont Harb   N/A     66 N/A N/A SE3         N/A
Croton O-T Hud   N/A     66 N/A N/A W5          N/A
Newburgh       PTSUNNY   64  52  63 W7        29.88F
Montgomery     CLOUDY    66  48  52 VRB3      29.86F
Poughkeepsie   CLOUDY    67  48  50 CALM      29.85F
Albany         CLOUDY    72  46  39 VRB3      29.83F
$$

NJZ001-105-106-008-010-013-015-019>022-104-232200-
NEW JERSEY

CITY           SKY/WX    TMP DP  RH WIND       PRES   REMARKS
Newark/Liberty CLOUDY    69  48  47 VRB5      29.85F
Teterboro      CLOUDY    70  46  42 CALM      29.84F
Caldwell       CLOUDY    71  48  43 NW5       29.86F
Somerville     PTSUNNY   67  52  58 CALM      29.84F
Linden           N/A     68  48  49 W3        29.85F
Perth Amboy      N/A     64 N/A N/A SE3         N/A
Sussex         CLOUDY    66  50  56 CALM      29.88F
Andover          N/A     66  48  52 NE3       29.87F
Trenton        CLOUDY    65  53  65 CALM      29.85F
Millville      CLOUDY    66  59  78 NE5       29.85F
Atlantic City  CLOUDY    64  47  53 E8        29.86F
Wrightstown    MOSUNNY   66  51  57 CALM      29.85F
Toms River     CLOUDY    65  47  52 SE6       29.87F
Belmar         CLOUDY    65  48  54 E5        29.87F
$$

PAZ047>061-062-071-232200-
EASTERN PENNSYLVANIA

CITY           SKY/WX    TMP DP  RH WIND       PRES   REMARKS
Philadelphia   CLOUDY    66  51  58 VRB6      29.86F
Allentown      CLOUDY    67  50  54 CALM      29.86F
Scranton       CLOUDY    69  43  38 VRB3      29.85F
$$

CTZ002-004>006-009-010-012-RIZ004-006-007-MAZ004-011-015-232200-
SOUTHERN NEW ENGLAND
 IN CT

CITY           SKY/WX    TMP DP  RH WIND       PRES   REMARKS
Bradley INTL   PTSUNNY   70  50  49 N5        29.84F
Hartford       CLOUDY    71  50  47 VRB5      29.83F
Danbury        CLOUDY    66  52  60 VRB5      29.87F
Wtrbury/Oxford CLOUDY    66  46  48 CALM      29.87F
Bridgeport     CLOUDY    68  49  50 SW8       29.85F
Meriden        CLOUDY    70  50  49 CALM      29.84F
New Haven      CLOUDY    65  48  54 SW12      29.85F
Chester          N/A     70  48  46 N6        29.85S
Groton         CLOUDY    65  51  60 W7        29.83F
Wilimantic     CLOUDY    73  48  41 VRB5      29.84S

 IN RI

CITY           SKY/WX    TMP DP  RH WIND       PRES   REMARKS
Providence     PTSUNNY   71  49  45 W9        29.83F
Block Island   CLOUDY    64  53  67 SW10      29.85F
Westerly       CLOUDY    65  52  62 W7        29.84F
 IN MA

CITY           SKY/WX    TMP DP  RH WIND       PRES   REMARKS
Boston         CLOUDY    62  52  69 E7        29.82F
Worcester      MOSUNNY   66  44  45 W7        29.85F
Westfield      CLOUDY    69  47  45 CALM      29.84F
Provincetown   PTSUNNY   58  51  78 E5        29.84F
Nantucket      MOSUNNY   60  51  72 N8        29.83F
$$

ANZ330-335-338-340-345-350-353-355-232200-
COASTAL MARINE OBSERVATIONS


STATION/POSITION TIME  SKY/WX   TEMP    WIND        PRES    VSBY  WAVE
                                AIR SEA DIR/SP/G                  HT/PER
                 (UTC)          (F)     (DEG/KT/KT) (MB)    (MI)  (FT/S)
NY HARB ENTRANCE 1950            60 60  230/  6/  8 1011.9          3/ 7
20 S FIRE ISLAND 2050            58 56   CALM  /  2 1010.7          3/ 8
GREAT SOUTH BAY  2030            63 65  200/ 10/ 10   N/A
23 SSW MONTAUK P 1950            58 56              1011.5          3/ 7
15 E BARNEGAT LI 2030               58                N/A           3/ 7
HUDSON CANYON    1950            55 55  360/  2/  2 1011.7          4/ 8
KINGS POINT      2042            66 60   CALM  /  1 1010.9
EXECUTION ROCKS  2045            66                   N/A
CENTRAL LI SOUND 2030            61     230/  6/  8   N/A           0
EASTERN LI SOUND NOT AVBL
ROBBINS REEF     2042            64     170/ 10/ 11 1011.5
$$


>>>>>>>>>>>>>>>>>>>>>>>>>>>> KEY <<<<<<<<<<<<<<<<<<<<<<<<<<<
>                                                          <
>     SKY/WX - Sky Condition/Present Weather               <
>     TMP    - Temperature in Fahrenheit                   <
>     DP     - Dew Point in Fahrenheit                     <
>     RH     - Relative Humidity in Percent                <
>     WIND   - Direction (from) and Speed in MPH           <
>     PRES   - Mean Sea Level Pressure (inches of Hg)      <
>     WCI    - Wind Chill Index                            <
>     VSB    - VISIBILITY IN MILES                         <
>     HX     - HEAT INDEX                                  <
>     TC     - TEMPERATURE IN CELSIUS                      <
>     VRB    - VARIABLE WIND DIRECTION                     <
>                                                          <
>>>>>>>>>>>>>>>>>>>>>>>>>>>> KEY <<<<<<<<<<<<<<<<<<<<<<<<<<<




USA.gov is the U.S. government's official web portal to all federal, state and local government web resources and services.